Regional Weather Roundup
Issued by NWS Jackson, KY

Home | Current Version | Previous Version | Graphics & Text | Print | Product List | Glossary On
Versions: 1 2 3 4 5 6 7 8 9 10 11 12 13 14 15 16 17 18 19 20 21 22 23 24 25 26 27 28 29 30 31 32 33 34 35 36 37 38 39 40 41 42 43 44 45 46 47 48 49 50
000
ASUS43 KJKL 281110
RWRJKL

EAST KENTUCKY HOURLY WEATHER ROUNDUP
NATIONAL WEATHER SERVICE JACKSON KY
600 AM EST WED JAN 28 2015

NOTE: "FAIR" INDICATES FEW OR NO CLOUDS BELOW 12,000 FEET WITH
NO SIGNIFICANT WEATHER AND/OR OBSTRUCTIONS TO VISIBILITY.

* THESE REPORTS ARE NOT UNDER NWS QUALITY CONTROL AND MAY NOT
  REPORT WEATHER SUCH AS PRECIPITATION AND FOG.

KYZ079-080-083-085-087-088-110-112-115-119-120-281200
...EASTERN KENTUCKY...

CITY           SKY/WX    TMP DP  RH WIND       PRES   REMARKS
JACKSON        CLEAR     16  10  77 CALM      30.27R
LONDON         CLEAR     19  11  70 CALM      30.28R
SOMERSET*      CLEAR     18  14  86 CALM      30.31R
MONTICELLO*    CLEAR     18  15  88 NE5       30.32R WCI  11
MIDDLESBORO*   CLEAR     18  17  94 CALM      30.28R
HARLAN APT*    SUNNY     19  16  86 CALM      30.25R
BLACK MTN*       N/A      9   9 100 VRB9        N/A  WCI  -5
PIKEVILLE APT* CLOUDY    18  14  86 CALM      30.26R
BIG SANDY*     CLOUDY    19  16  87 CALM      30.28R
MOREHEAD APT*  SUNNY     16  12  86 CALM      30.32R
$$

KYZ035-036-041-042-044-050-067-078-099-281200
...CENTRAL KENTUCKY...

CITY           SKY/WX    TMP DP  RH WIND       PRES   REMARKS
MT STERLING*   CLEAR     16  14  93 NE3       30.32R
FLEMING/MASON* CLEAR     13  11  90 CALM      30.34R
DANVILLE*      PTCLDY    18  14  86 NE3       30.31R
RICHMOND*      PTCLDY    16  12  86 CALM      30.30R
LEXINGTON        N/A     15  11  83 NE3       30.31R
FRANKFORT      CLEAR     14   9  80 CALM      30.31R
$$

KYZ091>093-OHZ055-061-077-WVZ005-015-034-035-042-281200
...SOUTHERN OHIO/WEST VIRGINIA...

CITY           SKY/WX    TMP DP  RH WIND       PRES   REMARKS
COVINGTON        N/A     17  12  80 CALM      30.31R HAZE
COLUMBUS       PTCLDY     6   2  83 CALM      30.31R FOG
DAYTON         PTCLDY    10   6  84 NW3       30.32R FOG
WILMINGTON     PTCLDY     8   5  87 CALM      30.30R FOG
HUNTINGTON     CLEAR     16  12  84 CALM      30.31R
CHARLESTON     PTCLDY    18  12  77 NW3       30.29R
PINEVILLE*     FLURRIES  23  18  83 MISG      30.26R
BECKLEY        CLOUDY    16  12  84 NW6       30.14R WCI   7
BLUEFIELD      CLOUDY    18  12  77 NW6       30.11R WCI  10
$$

VAZ002-007-008-TNZ017-027-036-066-071-281200
...SOUTHWEST VIRGINIA/EAST TENNESSEE...

CITY           SKY/WX    TMP DP  RH WIND       PRES   REMARKS
WISE*          CLOUDY    18  16  93 N5        30.17R WCI  11
JONESVILLE*    SUNNY     16  14  93 CALM      30.27R
ABINGDON*      CLEAR     20  14  76 NW3       30.18R
BRISTOL        PTCLDY    18  11  74 CALM      30.23R
KNOXVILLE      CLEAR     25  18  74 N7        30.25R WCI  17
OAK RIDGE      CLEAR     27  17  66 NE3       30.28R
CROSSVILLE     PTCLDY    25  19  78 N5        30.21R WCI  19
NASHVILLE      CLOUDY    33  26  75 NE9       30.29R WCI  25
$$

...KEY TO REMARKS...
VSB - VISIBILITY IN MILES
WCI - WIND CHILL INDEX
HX  - HEAT INDEX

$$


USA.gov is the U.S. government's official web portal to all federal, state and local government web resources and services.